Wind_Speed
15 16 15 13 11 10 10 10 10 11 11 12 13 14 15 15 16 16 16 17 18 18 18 18 18 18 18 17 18 18 20 20 21 22 23 24 25 26 26 27 27 28 29
11 11 11 10 9 8 9 9 9 9 10 11 12 13 14 15 15 16 17 17 18 18 18 18 18 18 18 18 18 18 18 19 20 21 21 23 24 24 25 27 28 28 29
5 7 7 6 6 6 6 7 8 9 10 11 12 13 15 16 17 17 18 18 18 19 19 19 19 19 19 19 19 19 20 20 20 21 22 23 24 24 25 26 27 28 29
3 4 4 4 4 4 5 6 8 9 11 12 14 15 16 17 18 19 19 19 19 19 20 20 20 20 20 21 21 21 21 21 21 22 22 24 25 26 27 27 28 29 29
2 3 3 2 2 3 5 7 9 10 12 14 16 17 18 19 19 20 20 20 20 20 21 21 21 22 22 22 22 23 23 23 23 24 24 25 26 27 28 29 29 30 31
1 1 2 3 4 6 7 9 10 12 13 15 17 18 19 20 21 21 22 22 22 21 21 22 22 23 24 24 24 25 26 26 26 27 27 27 28 29 30 31 32 32 33
4 4 5 5 7 8 9 10 11 13 14 16 17 19 20 21 21 22 23 23 23 23 23 23 24 24 25 26 27 27 28 29 29 30 30 30 31 31 32 32 33 34 35
6 7 8 8 9 10 11 12 13 14 15 17 18 19 21 21 22 22 23 23 24 25 25 25 26 26 27 28 29 30 30 31 32 33 33 34 34 34 35 35 36 36 37
9 10 11 11 11 12 12 13 14 15 16 18 19 20 22 23 23 24 24 25 25 26 26 27 28 29 30 31 32 33 33 34 35 35 36 36 37 37 37 38 38 39 39
13 13 13 13 13 13 14 14 15 16 17 18 20 20 21 23 23 24 25 26 26 27 28 29 31 32 33 34 35 36 37 37 38 38 38 38 39 39 39 40 40 41 41
16 15 15 15 14 14 14 15 16 17 18 19 21 22 22 23 24 24 25 26 27 29 30 32 33 35 36 37 38 38 39 39 39 39 39 39 39 40 40 40 41 41 42
18 18 16 16 16 15 15 15 16 18 19 20 21 22 23 24 24 25 26 27 29 30 32 34 36 37 38 39 39 40 40 40 39 39 38 39 39 39 39 40 40 40 41
19 19 18 17 16 16 16 17 17 18 19 21 22 23 24 25 25 26 27 29 31 32 34 36 38 39 40 40 40 40 40 39 38 38 37 37 37 37 38 38 38 38 39
18 19 18 17 17 17 18 18 19 20 21 22 23 24 25 26 26 27 29 31 33 34 36 38 40 41 41 41 41 40 39 38 37 37 36 36 35 35 36 37 37 38 38
19 19 18 18 18 19 19 19 20 21 23 24 25 26 26 27 28 30 32 34 35 36 38 40 41 42 42 41 41 39 37 36 35 34 34 34 33 33 34 35 36 36 37
20 19 18 19 19 20 20 21 22 23 24 26 26 27 28 30 31 32 34 36 37 38 40 42 43 43 43 42 40 39 36 35 34 33 33 33 33 33 33 33 34 35 35
20 19 20 20 20 21 22 22 23 25 26 27 28 29 30 31 33 35 36 37 39 41 42 44 44 44 44 43 40 38 36 35 34 33 32 32 32 32 31 31 32 33 34
21 21 22 22 22 22 23 24 25 26 28 28 29 31 32 33 35 36 38 39 41 43 44 45 45 45 45 43 39 37 35 35 34 33 32 31 31 31 30 30 30 31 32
22 23 24 24 24 24 25 26 27 28 29 30 31 33 34 36 37 39 40 41 43 45 46 46 46 46 45 43 39 37 35 34 33 32 31 31 31 30 30 30 30 31 32
25 25 25 26 26 26 26 27 28 30 31 32 33 35 36 38 39 41 43 44 45 46 47 47 47 46 45 42 40 38 36 34 33 32 31 31 31 31 30 30 31 31 32
27 27 27 28 28 28 29 30 31 32 34 35 36 38 40 40 40 42 45 46 46 47 48 48 47 46 44 41 38 37 35 34 32 32 31 31 31 31 30 30 30 31 31
29 29 29 30 30 30 32 32 34 35 37 38 39 40 41 42 44 45 46 48 48 48 49 48 47 45 43 40 37 36 35 34 33 32 32 31 31 30 29 29 29 30 30
30 31 32 32 32 33 34 35 37 39 40 41 43 43 44 45 47 48 49 49 49 50 51 50 49 46 43 40 37 36 34 34 33 32 32 31 30 30 29 29 29 29 29
33 34 35 35 36 36 37 39 40 41 42 44 46 47 48 49 49 49 50 50 51 52 53 52 49 46 43 40 38 36 35 34 33 32 31 31 31 30 29 28 28 27 27
35 36 37 38 39 40 40 41 43 44 45 48 49 49 50 50 50 50 51 52 52 52 52 50 48 45 42 40 37 36 35 34 33 32 31 31 30 29 28 27 26 26 25
37 38 39 40 42 43 44 45 46 47 48 49 51 51 51 52 52 52 53 52 52 51 50 49 46 42 40 39 37 35 34 34 33 32 31 30 29 28 26 25 25 25 24
Wind_Direction
263 264 267 268 271 272 280 291 300 304 309 311 313 316 318 320 321 321 321 318 316 314 312 310 308 305 301 296 291 287 284 282 280 276 274 271 268 266 264 263 261 257 254
258 259 254 258 260 268 282 295 303 310 315 318 322 325 329 331 332 331 329 325 321 318 316 313 312 309 307 303 298 293 289 285 282 280 277 274 272 269 266 263 261 259 257
245 240 239 241 249 268 290 304 313 320 326 330 332 335 337 337 336 333 330 326 322 319 316 314 312 311 309 306 303 299 294 289 285 282 279 278 276 272 268 265 262 260 258
221 221 224 238 260 287 307 318 324 330 334 337 338 337 336 334 332 331 329 326 323 320 316 314 312 310 308 306 303 301 297 293 289 285 282 280 277 275 272 268 264 262 260
221 217 241 286 330 337 335 331 334 337 339 340 340 338 337 335 332 329 327 325 323 320 317 314 312 310 308 307 305 302 299 296 293 289 285 282 279 277 274 272 268 264 260
41 17 351 350 347 342 338 337 338 340 341 341 340 338 336 335 332 330 329 327 325 321 316 314 312 311 309 307 305 303 300 297 294 291 288 285 282 279 276 273 270 267 263
19 5 349 344 339 338 338 339 339 340 340 338 337 335 334 332 331 329 329 327 325 322 320 316 314 312 310 308 305 303 300 296 294 292 289 286 283 280 277 274 271 269 266
357 351 346 342 338 335 336 338 337 336 336 335 333 332 332 331 329 328 327 326 325 324 322 320 317 315 312 310 307 304 300 297 294 292 289 287 284 281 277 274 272 269 267
338 338 338 335 333 332 332 333 333 332 332 332 332 331 330 330 329 328 327 326 324 323 321 320 317 315 313 310 307 304 301 298 294 291 288 286 284 281 277 274 272 269 266
328 329 328 328 327 326 326 327 327 327 328 329 329 328 328 327 327 327 327 326 325 324 322 321 319 317 314 311 308 305 302 299 295 292 289 286 283 280 277 275 272 269 266
323 322 322 321 320 320 320 320 322 324 325 325 325 325 326 327 326 326 326 326 325 324 323 322 321 319 317 314 311 307 304 300 296 293 289 286 282 279 277 275 272 269 267
319 317 317 316 314 314 314 316 319 321 321 321 322 323 324 325 325 325 326 326 326 325 324 324 322 321 319 317 314 310 307 303 298 294 290 286 283 280 277 275 273 270 267
311 309 310 309 309 309 311 313 315 316 318 319 320 320 322 322 322 323 324 325 325 325 325 325 324 323 322 320 317 313 309 305 301 297 292 288 285 281 278 275 273 271 268
303 303 304 305 305 307 308 311 313 315 317 318 318 318 319 320 321 322 323 324 324 324 325 326 325 325 324 322 319 315 312 308 304 299 295 291 286 283 279 276 273 271 269
299 300 301 303 303 304 306 308 310 313 315 316 316 316 316 318 319 320 322 324 324 324 325 326 326 326 325 324 320 317 314 310 306 302 298 294 289 285 282 279 275 272 269
298 300 301 302 302 303 304 306 308 311 312 313 314 315 315 316 318 319 320 323 324 325 326 327 327 327 327 325 322 319 315 312 308 304 300 297 293 288 284 280 276 272 270
297 299 301 301 302 303 304 305 307 309 311 311 312 314 314 315 316 318 320 322 324 326 327 328 328 327 327 325 322 319 316 313 309 305 301 298 296 291 286 282 279 275 272
301 302 301 301 302 302 303 305 307 309 310 310 311 312 313 313 315 317 319 321 323 326 327 328 328 327 327 325 322 319 316 313 310 306 303 301 298 294 289 284 282 279 275
300 301 301 301 301 301 303 305 306 308 309 308 309 310 310 312 314 317 319 319 322 325 327 327 327 326 326 324 321 319 317 313 310 307 303 301 299 296 291 287 284 281 277
298 299 298 299 300 301 302 303 305 306 307 308 310 309 309 311 313 316 318 319 320 323 326 326 327 326 325 323 321 318 316 314 311 308 305 302 300 297 293 288 285 282 278
295 295 295 296 298 299 301 302 304 305 306 307 309 309 310 310 311 315 317 319 321 322 324 325 326 324 323 321 318 316 315 314 311 308 305 304 302 299 294 289 286 284 280
291 292 293 294 295 297 299 300 302 303 304 306 307 309 310 312 314 314 317 320 321 322 323 323 324 322 321 319 317 315 314 313 311 309 306 305 304 300 295 291 288 285 282
290 291 293 293 294 296 298 299 301 302 304 306 307 308 310 312 314 315 316 318 318 319 320 321 322 321 320 318 316 315 314 313 311 309 307 305 304 301 297 293 290 287 284
289 291 292 293 293 295 296 298 299 301 303 306 307 308 309 309 311 312 314 314 316 317 318 319 320 319 318 317 316 314 313 312 311 309 308 306 305 303 299 294 291 289 286
288 288 290 292 293 294 296 296 298 300 301 303 305 307 308 309 309 310 311 313 314 316 316 317 317 317 315 315 314 313 313 312 312 311 309 307 306 304 300 295 292 291 289
287 288 288 290 292 293 294 295 296 298 299 301 303 303 305 307 307 308 309 310 312 313 313 313 313 313 312 311 311 311 311 311 311 311 311 309 307 305 301 297 294 292 290
Height
5862 5864 5865 5866 5867 5867 5868 5868 5867 5866 5865 5864 5863 5861 5859 5857 5855 5853 5851 5849 5847 5845 5843 5842 5840 5839 5838 5837 5836 5835 5834 5834 5834 5834 5834 5834 5834 5835 5836 5837 5839 5840 5842
5859 5861 5862 5864 5865 5865 5866 5866 5865 5864 5863 5862 5860 5859 5857 5855 5852 5850 5848 5846 5844 5842 5840 5838 5837 5835 5834 5833 5832 5831 5830 5829 5829 5829 5828 5828 5829 5829 5830 5831 5831 5833 5834
5858 5859 5861 5862 5863 5864 5864 5864 5864 5863 5861 5860 5858 5856 5854 5852 5850 5848 5846 5843 5841 5839 5837 5835 5833 5832 5830 5829 5827 5826 5825 5825 5824 5823 5823 5823 5822 5823 5823 5824 5824 5825 5827
5858 5859 5860 5861 5862 5863 5863 5862 5862 5861 5859 5858 5856 5854 5852 5850 5847 5845 5843 5841 5838 5836 5834 5832 5830 5828 5826 5825 5823 5822 5820 5819 5818 5818 5817 5816 5816 5816 5816 5817 5817 5818 5819
5858 5859 5860 5861 5861 5861 5861 5861 5860 5858 5857 5855 5853 5851 5849 5847 5845 5842 5840 5838 5835 5833 5831 5828 5826 5824 5822 5820 5818 5817 5815 5814 5812 5811 5811 5810 5809 5808 5809 5809 5809 5810 5811
5858 5859 5860 5860 5860 5859 5859 5859 5857 5856 5854 5853 5851 5849 5847 5844 5842 5839 5837 5834 5832 5830 5827 5825 5822 5820 5818 5815 5813 5811 5809 5807 5806 5804 5803 5802 5802 5801 5800 5801 5801 5801 5803
5859 5859 5859 5859 5858 5858 5857 5856 5855 5854 5852 5851 5849 5847 5844 5842 5839 5836 5833 5831 5828 5826 5823 5820 5818 5815 5813 5810 5808 5805 5803 5801 5799 5797 5795 5794 5793 5792 5792 5792 5792 5792 5793
5859 5859 5858 5857 5857 5856 5855 5854 5853 5851 5850 5848 5846 5844 5842 5839 5836 5834 5831 5827 5824 5821 5818 5815 5813 5810 5807 5804 5801 5798 5796 5793 5791 5788 5786 5785 5783 5782 5782 5782 5782 5782 5783
5859 5857 5856 5856 5855 5854 5852 5851 5850 5849 5848 5846 5844 5841 5838 5836 5833 5830 5827 5824 5820 5817 5814 5811 5808 5804 5801 5797 5794 5791 5787 5784 5782 5779 5777 5775 5773 5772 5771 5770 5770 5771 5772
5857 5856 5854 5853 5852 5851 5850 5849 5848 5847 5845 5843 5841 5839 5836 5833 5830 5826 5823 5820 5816 5813 5809 5805 5801 5798 5794 5790 5786 5782 5778 5775 5771 5768 5766 5764 5762 5760 5759 5759 5758 5759 5760
5855 5854 5852 5851 5850 5849 5848 5846 5845 5843 5842 5840 5837 5835 5832 5829 5826 5823 5819 5815 5812 5808 5804 5799 5795 5790 5786 5781 5776 5772 5768 5764 5760 5757 5754 5752 5750 5748 5747 5746 5746 5746 5746
5852 5851 5850 5848 5847 5846 5845 5844 5842 5840 5838 5836 5834 5831 5828 5825 5822 5819 5815 5811 5807 5802 5798 5793 5788 5783 5777 5772 5767 5762 5757 5752 5748 5745 5742 5739 5737 5736 5735 5734 5734 5734 5734
5850 5848 5847 5846 5844 5843 5842 5840 5839 5837 5835 5833 5830 5827 5824 5821 5818 5814 5810 5805 5801 5796 5791 5786 5780 5774 5768 5763 5757 5751 5746 5741 5737 5733 5730 5727 5725 5724 5722 5722 5721 5721 5721
5848 5846 5844 5843 5841 5840 5838 5836 5835 5833 5831 5828 5826 5823 5820 5816 5812 5808 5804 5799 5795 5789 5784 5778 5772 5766 5759 5753 5747 5741 5736 5731 5726 5722 5719 5716 5714 5712 5711 5710 5709 5709 5709
5844 5843 5841 5839 5837 5836 5834 5833 5831 5828 5826 5823 5821 5818 5814 5811 5807 5803 5798 5793 5788 5782 5777 5770 5764 5757 5750 5744 5737 5731 5726 5721 5717 5712 5709 5706 5703 5701 5700 5699 5698 5698 5698
5840 5839 5837 5835 5834 5832 5830 5828 5826 5824 5821 5818 5815 5812 5808 5804 5800 5796 5792 5787 5781 5775 5769 5762 5755 5748 5741 5735 5728 5722 5717 5712 5707 5703 5699 5696 5694 5691 5689 5688 5687 5687 5687
5835 5834 5832 5831 5829 5827 5825 5823 5821 5818 5816 5812 5809 5806 5802 5798 5794 5789 5784 5779 5773 5767 5761 5754 5747 5739 5733 5726 5719 5713 5708 5703 5699 5694 5690 5687 5684 5681 5679 5677 5676 5676 5675
5830 5829 5827 5826 5824 5822 5820 5817 5815 5812 5809 5806 5803 5799 5795 5791 5787 5782 5777 5771 5766 5759 5752 5745 5738 5731 5724 5717 5711 5705 5700 5695 5690 5686 5682 5678 5675 5672 5670 5668 5667 5665 5665
5825 5823 5821 5820 5818 5816 5814 5811 5809 5806 5803 5799 5796 5792 5788 5784 5779 5774 5769 5763 5757 5751 5744 5736 5729 5722 5715 5708 5702 5696 5691 5686 5682 5677 5673 5669 5666 5663 5660 5658 5657 5655 5654
5819 5818 5816 5814 5812 5809 5807 5804 5801 5798 5795 5792 5788 5784 5780 5775 5770 5765 5759 5754 5748 5742 5735 5728 5720 5713 5706 5699 5693 5687 5683 5678 5673 5669 5664 5661 5657 5654 5651 5648 5647 5645 5644
5813 5811 5809 5807 5805 5802 5799 5797 5794 5790 5787 5783 5780 5776 5771 5766 5762 5756 5751 5744 5738 5732 5725 5718 5711 5704 5697 5691 5685 5679 5674 5670 5665 5660 5656 5652 5648 5645 5642 5639 5637 5635 5633
5806 5804 5802 5800 5797 5795 5792 5789 5785 5782 5778 5775 5770 5766 5762 5757 5752 5746 5741 5735 5728 5722 5715 5709 5702 5695 5689 5683 5677 5671 5666 5661 5657 5652 5647 5643 5639 5636 5632 5630 5627 5625 5623
5798 5796 5793 5791 5789 5786 5783 5780 5776 5773 5769 5765 5761 5756 5751 5747 5741 5736 5730 5724 5718 5712 5706 5699 5693 5686 5679 5673 5668 5663 5658 5653 5648 5643 5639 5635 5631 5627 5623 5620 5617 5615 5613
5790 5787 5785 5782 5779 5777 5774 5771 5767 5763 5759 5755 5751 5746 5741 5736 5731 5725 5720 5714 5708 5701 5695 5688 5682 5676 5669 5664 5659 5654 5649 5645 5640 5635 5631 5626 5622 5618 5614 5611 5608 5606 5604
5781 5778 5775 5772 5769 5767 5764 5760 5757 5753 5749 5744 5739 5735 5730 5725 5720 5714 5709 5703 5698 5691 5684 5678 5672 5666 5660 5655 5650 5645 5640 5636 5631 5627 5622 5618 5614 5610 5606 5603 5600 5598 5596
5771 5769 5766 5763 5759 5756 5753 5749 5746 5742 5738 5733 5728 5723 5718 5713 5708 5702 5697 5692 5687 5681 5675 5668 5662 5657 5651 5646 5641 5637 5632 5627 5623 5619 5614 5610 5606 5602 5598 5595 5592 5590 5588